Regional Weather Roundup
Issued by NWS

Home | Current Version | Previous Version | Text Only | Print | Product List | Glossary On
Versions: 1 2 3 4 5 6 7 8 9 10 11 12 13 14 15 16 17 18 19 20 21 22 23 24 25 26 27 28 29 30 31 32 33 34 35 36 37 38 39 40 41 42 43 44 45 46 47 48 49 50
000
ASUS43 KTOP 030759
RWRKS

WEATHER ROUNDUP FOR KANSAS
NATIONAL WEATHER SERVICE GOODLAND KS
300 AM CDT THU SEP 03 2015

NOTE:  "FAIR" INDICATES FEW OR NO CLOUDS BELOW 12,000 FEET WITH NO
SIGNIFICANT WEATHER AND/OR OBSTRUCTIONS TO VISIBILITY.

KSZ001>006-013>018-027>032-041>047-030900-
NORTHWEST KANSAS

CITY           SKY/WX    TMP DP  RH WIND       PRES   REMARKS
GOODLAND       PTCLDY    73  55  53 SW10      29.88F
HAYS           MOCLDY    75  55  50 S9        29.87S
HILL CITY      PTCLDY    78  58  49 S8        29.84F
RUSSELL        MOCLDY    78  60  53 S16       29.85F
$$

KSZ061>065-074>080-084>089-030900-
SOUTHWEST KANSAS

CITY           SKY/WX    TMP DP  RH WIND       PRES   REMARKS
DODGE CITY     CLEAR     72  56  57 S12       29.91F
ELKHART          N/A     69  52  54 S13         N/A
GARDEN CITY    PTCLDY    70  58  65 S9        29.89F
GREAT BEND     PTCLDY    75  61  60 S14       29.88F
LIBERAL        PTCLDY    73  55  53 S12       29.92F
$$

KSZ066>073-081>083-090>101-030900-
SOUTHEAST KANSAS

CITY           SKY/WX    TMP DP  RH WIND       PRES   REMARKS
CHANUTE        CLEAR     72  68  87 S8        29.95F
COFFEYVILLE    CLEAR     71  68  90 S3        29.95S
HUTCHINSON     CLEAR     76  62  62 S10       29.91F
NEWTON         CLEAR     73  61  64 S10       29.95S
PARSONS        CLEAR     72  68  87 S3        29.96F
WICHITA INTL   PTCLDY    75  63  66 S10       29.92S
WICHITA JABRA  CLEAR     73  64  73 S9        29.92F
WICHITA MCCONL CLEAR     75  63  65 S10       29.92F
WINFIELD       CLEAR     74  64  71 S8        29.94F
$$

KSZ007>012-019>026-033>040-048>060-102>105-030900-
NORTHEAST KANSAS

CITY           SKY/WX    TMP DP  RH WIND       PRES   REMARKS
CONCORDIA      PTCLDY    76  64  66 S17G26    29.85F
EMPORIA        CLEAR     72  67  84 S14       29.92F
LAWRENCE       PTCLDY    75  68  78 S8        29.92F
MANHATTAN      MOCLDY    77  66  68 S8        29.88F
OLATHE IND     PTCLDY    73  68  84 S9        29.95S
OLATHE EXE     PTCLDY    71  68  90 S6        29.94F
SALINA         CLEAR     79  63  57 S14G28    29.87F
TOPEKA BILLARD CLEAR     76  68  76 S10       29.91F
TOPEKA FORBES  PTCLDY    75  68  78 S7        29.92F
$$


USA.gov is the U.S. government's official web portal to all federal, state and local government web resources and services.